Weather History for KPHP - May, 2013

Change the Weather History Date:

Friday, May 10, 2013

  Actual Average Record
Temperature  
Mean Temperature 57 °F 55 °F  
Max Temperature 80 °F 69 °F 93 °F (2012)
Min Temperature 34 °F 42 °F 24 °F (1990)
Degree Days  
Heating Degree Days 8 10  
Month to date heating degree days 167 118  
Since 1 July heating degree days 6917 6985  
Growing Degree Days 6 (Base 50)    
Moisture  
Dew Point 37 °F    
Average Humidity 56    
Maximum Humidity 89    
Minimum Humidity 23    
Precipitation  
Precipitation 0.01 in 0.10 in 1.28 in (1982)
Month to date precipitation 0.03 0.98  
Year to date precipitation 3.21 4.87  
Sea Level Pressure  
Sea Level Pressure 30.12 in    
Wind  
Wind Speed 9 mph (NW)    
Max Wind Speed 32 mph    
Max Gust Speed 41 mph    
Visibility 10 miles    
Events Rain    
T = Trace of Precipitation, MM = Missing Value Source: NWS Daily Summary

Daily Weather History Graph

Daily Weather History Graph

Search for Another Location

Airport or City:

Trip Planner

Search our weather history database for the weather conditions in past years. The results will help you decide how hot, cold, wet, or windy it might be!

Date:

Astronomy

May. 10, 2013 Rise Set
Actual Time 5:25 AM MDT 8:00 PM MDT
Civil Twilight 4:52 AM MDT 8:33 PM MDT
Nautical Twilight 4:11 AM MDT 9:15 PM MDT
Astronomical Twilight 3:24 AM MDT 10:02 PM MDT
Moon 5:51 AM MDT (5/10) 8:52 PM MDT (5/10)
Length of Visible Light 15h 40m
Length of Day
14h 35m
New Moon, 1% of the Moon is Illuminated
May 10
New Moon
May 17
First Quarter
May 24
Full
May 31
Last Quarter
Jun 8
New

Hourly Weather History & Observations

Time (MDT) Temp. Windchill Dew Point Humidity Pressure Visibility Wind Dir Wind Speed Gust Speed Precip Events Conditions
12:55 AM 44.1 °F - 28.9 °F 55% 30.14 in 10.0 mi Calm Calm - N/A   Clear
1:55 AM 41.0 °F - 28.9 °F 62% 30.14 in 10.0 mi Calm Calm - N/A   Clear
2:55 AM 37.9 °F 35.5 °F 28.9 °F 70% 30.14 in 10.0 mi West 3.5 mph - N/A   Clear
3:55 AM 36.0 °F 32.1 °F 30.0 °F 79% 30.14 in 10.0 mi West 4.6 mph - N/A   Clear
4:55 AM 35.1 °F 31.0 °F 28.9 °F 78% 30.13 in 10.0 mi West 4.6 mph - N/A   Clear
5:55 AM 34.0 °F 31.0 °F 30.0 °F 85% 30.14 in 10.0 mi WNW 3.5 mph - N/A   Clear
6:55 AM 41.0 °F - 33.1 °F 73% 30.13 in 10.0 mi Calm Calm - N/A   Clear
7:55 AM 50.0 °F - 33.1 °F 52% 30.12 in 10.0 mi Calm Calm - N/A   Clear
8:55 AM 59.0 °F - 37.0 °F 44% 30.10 in 10.0 mi South 4.6 mph - N/A   Clear
9:55 AM 64.9 °F - 41.0 °F 42% 30.09 in 10.0 mi WSW 8.1 mph - N/A   Clear
10:55 AM 68.0 °F - 43.0 °F 40% 30.07 in 10.0 mi Variable 3.5 mph - N/A   Clear
11:55 AM 72.0 °F - 43.0 °F 35% 30.06 in 10.0 mi Variable 4.6 mph - N/A   Clear
12:55 PM 75.9 °F - 41.0 °F 29% 30.04 in 10.0 mi NW 11.5 mph 17.3 mph N/A   Partly Cloudy
1:55 PM 78.1 °F - 37.9 °F 24% 30.03 in 10.0 mi NW 12.7 mph 21.9 mph N/A   Partly Cloudy
2:55 PM 78.1 °F - 39.0 °F 25% 30.02 in 10.0 mi NW 12.7 mph - N/A   Mostly Cloudy
3:55 PM 77.0 °F - 37.0 °F 24% 30.00 in 10.0 mi WNW 15.0 mph 18.4 mph N/A   Scattered Clouds
4:55 PM 66.0 °F - 44.1 °F 45% 30.08 in 9.0 mi NNE 18.4 mph 41.4 mph 0.00 in Rain Light Rain
5:07 PM 62.6 °F - 48.2 °F 59% 30.09 in 9.0 mi North 21.9 mph 35.7 mph 0.00 in Rain Light Rain
5:55 PM 66.0 °F - 45.0 °F 47% 30.10 in 10.0 mi North 23.0 mph 31.1 mph 0.01 in   Mostly Cloudy
6:55 PM 63.0 °F - 45.0 °F 52% 30.12 in 10.0 mi North 16.1 mph - N/A   Mostly Cloudy
7:55 PM 60.1 °F - 42.1 °F 51% 30.15 in 10.0 mi NNW 10.4 mph - N/A   Overcast
8:55 PM 59.0 °F - 37.9 °F 46% 30.18 in 10.0 mi NNW 10.4 mph - N/A   Overcast
9:55 PM 55.9 °F - 34.0 °F 44% 30.22 in 10.0 mi NNW 10.4 mph - N/A   Overcast
10:55 PM 53.1 °F - 33.1 °F 47% 30.25 in 10.0 mi NNW 8.1 mph - N/A   Mostly Cloudy
11:55 PM 50.0 °F - 30.0 °F 46% 30.28 in 10.0 mi North 12.7 mph - N/A   Partly Cloudy